timestamp,wind_dir_avg,wind_spd_max_dir,wind_spd_avg,wind_spd_gust,battery_voltage,lat,long
2018-05-05 00:00:00+00:00,228.0,228.0,4.46,4.91,,47.59359,-54.27349
2018-05-05 00:10:00+00:00,227.0,229.0,4.23,4.78,,47.59359,-54.27349
2018-05-05 00:20:00+00:00,225.0,229.0,4.17,4.65,,47.59359,-54.27349
2018-05-05 00:30:00+00:00,223.0,222.0,4.33,4.65,,47.59359,-54.27349
2018-05-05 00:40:00+00:00,215.0,213.0,3.62,4.07,,47.59359,-54.27349
2018-05-05 00:50:00+00:00,212.0,217.0,4.36,4.82,,47.59359,-54.27349
2018-05-05 01:00:00+00:00,190.0,186.0,3.88,4.46,,47.59359,-54.27349
2018-05-05 01:10:00+00:00,193.0,191.0,4.31,4.84,,47.59359,-54.27349
2018-05-05 01:20:00+00:00,202.0,204.0,3.35,3.8,,47.59359,-54.27349
2018-05-05 01:30:00+00:00,203.0,208.0,3.27,3.75,,47.59359,-54.27349
2018-05-05 01:40:00+00:00,199.0,198.0,3.42,3.7,,47.59359,-54.27349
2018-05-05 01:50:00+00:00,202.0,203.0,3.33,3.8,,47.59359,-54.27349
2018-05-05 02:00:00+00:00,192.0,193.0,3.14,3.52,,47.59359,-54.27349
2018-05-05 02:10:00+00:00,185.0,183.0,2.54,2.77,,47.59359,-54.27349
2018-05-05 02:20:00+00:00,192.0,194.0,3.47,3.75,,47.59359,-54.27349
2018-05-05 02:30:00+00:00,183.0,183.0,3.4,3.93,,47.59359,-54.27349
2018-05-05 02:40:00+00:00,193.0,199.0,3.88,4.39,,47.59359,-54.27349
2018-05-05 02:50:00+00:00,195.0,195.0,3.44,3.96,,47.59359,-54.27349
2018-05-05 03:00:00+00:00,194.0,195.0,3.86,4.06,,47.59359,-54.27349
2018-05-05 03:10:00+00:00,181.0,183.0,4.69,5.08,,47.59359,-54.27349
2018-05-05 03:20:00+00:00,192.0,195.0,4.53,4.95,,47.59359,-54.27349
2018-05-05 03:30:00+00:00,190.0,194.0,3.61,3.99,,47.59359,-54.27349
2018-05-05 03:40:00+00:00,180.0,182.0,3.56,3.76,,47.59359,-54.27349
2018-05-05 03:50:00+00:00,176.0,181.0,2.93,3.17,,47.59359,-54.27349
2018-05-05 04:00:00+00:00,170.0,169.0,3.62,3.97,,47.59359,-54.27349
2018-05-05 04:10:00+00:00,179.0,180.0,3.82,4.09,,47.59359,-54.27349
2018-05-05 04:20:00+00:00,178.0,181.0,4.01,4.37,,47.59359,-54.27349
2018-05-05 04:30:00+00:00,170.0,169.0,3.98,4.25,,47.59359,-54.27349
2018-05-05 04:40:00+00:00,163.0,162.0,4.3,4.75,,47.59359,-54.27349
2018-05-05 04:50:00+00:00,174.0,171.0,4.38,4.69,,47.59359,-54.27349
2018-05-05 05:00:00+00:00,170.0,170.0,3.72,4.04,,47.59359,-54.27349
2018-05-05 05:10:00+00:00,179.0,176.0,3.54,3.97,,47.59359,-54.27349
2018-05-05 05:20:00+00:00,173.0,174.0,3.98,4.36,,47.59359,-54.27349
2018-05-05 05:30:00+00:00,175.0,183.0,4.14,4.52,,47.59359,-54.27349
2018-05-05 05:40:00+00:00,173.0,177.0,3.71,4.16,,47.59359,-54.27349
2018-05-05 05:50:00+00:00,172.0,170.0,3.77,4.06,,47.59359,-54.27349
2018-05-05 06:00:00+00:00,176.0,176.0,3.8,4.08,,47.59359,-54.27349
2018-05-05 06:10:00+00:00,171.0,177.0,3.14,3.5,,47.59359,-54.27349
2018-05-05 06:20:00+00:00,174.0,178.0,3.41,3.65,,47.59359,-54.27349
2018-05-05 06:30:00+00:00,173.0,171.0,3.08,3.28,,47.59359,-54.27349
2018-05-05 06:40:00+00:00,160.0,156.0,2.87,3.15,,47.59359,-54.27349
2018-05-05 06:50:00+00:00,151.0,151.0,2.93,3.15,,47.59359,-54.27349
2018-05-05 07:00:00+00:00,144.0,141.0,3.21,3.69,,47.59359,-54.27349
2018-05-05 07:10:00+00:00,155.0,156.0,3.44,3.72,,47.59359,-54.27349
2018-05-05 07:20:00+00:00,159.0,163.0,3.69,4.14,,47.59359,-54.27349
2018-05-05 07:30:00+00:00,165.0,167.0,3.98,4.33,,47.59359,-54.27349
2018-05-05 07:40:00+00:00,180.0,180.0,3.98,4.3,,47.59359,-54.27349
2018-05-05 07:50:00+00:00,175.0,174.0,3.67,4.03,,47.59359,-54.27349
2018-05-05 08:00:00+00:00,185.0,176.0,3.29,3.62,,47.59359,-54.27349
2018-05-05 08:10:00+00:00,174.0,170.0,2.85,3.27,,47.59359,-54.27349
2018-05-05 08:20:00+00:00,180.0,180.0,2.7,3.0,,47.59359,-54.27349
2018-05-05 08:30:00+00:00,182.0,182.0,2.57,2.84,,47.59359,-54.27349
2018-05-05 08:40:00+00:00,166.0,161.0,2.79,3.44,,47.59359,-54.27349
2018-05-05 08:50:00+00:00,176.0,174.0,3.06,3.73,,47.59359,-54.27349
2018-05-05 09:00:00+00:00,168.0,168.0,3.59,3.96,,47.59359,-54.27349
2018-05-05 09:10:00+00:00,160.0,150.0,2.11,2.56,,47.59359,-54.27349
2018-05-05 09:20:00+00:00,163.0,164.0,3.0,3.57,,47.59359,-54.27349
2018-05-05 09:30:00+00:00,169.0,170.0,3.54,4.42,,47.59359,-54.27349
2018-05-05 09:40:00+00:00,167.0,170.0,3.43,3.88,,47.59359,-54.27349
2018-05-05 09:50:00+00:00,177.0,180.0,5.05,5.71,,47.59359,-54.27349
2018-05-05 10:00:00+00:00,186.0,183.0,5.05,5.61,,47.59359,-54.27349
2018-05-05 10:10:00+00:00,183.0,178.0,5.05,5.82,,47.59359,-54.27349
2018-05-05 10:20:00+00:00,198.0,204.0,5.13,5.85,,47.59359,-54.27349
2018-05-05 10:30:00+00:00,186.0,184.0,5.55,6.15,,47.59359,-54.27349
2018-05-05 10:40:00+00:00,186.0,189.0,5.58,6.18,,47.59359,-54.27349
2018-05-05 10:50:00+00:00,185.0,182.0,5.73,6.23,,47.59359,-54.27349
2018-05-05 11:00:00+00:00,177.0,174.0,6.16,6.87,,47.59359,-54.27349
2018-05-05 11:10:00+00:00,175.0,177.0,6.33,6.81,,47.59359,-54.27349
2018-05-05 11:20:00+00:00,184.0,186.0,5.6,6.43,,47.59359,-54.27349
2018-05-05 11:30:00+00:00,191.0,190.0,6.87,7.58,,47.59359,-54.27349
2018-05-05 11:40:00+00:00,181.0,176.0,7.64,8.34,,47.59359,-54.27349
2018-05-05 11:50:00+00:00,182.0,183.0,5.37,5.93,,47.59359,-54.27349
2018-05-05 12:00:00+00:00,183.0,179.0,8.24,9.8,,47.59359,-54.27349
2018-05-05 12:10:00+00:00,180.0,178.0,7.78,8.99,,47.59359,-54.27349
2018-05-05 12:20:00+00:00,170.0,174.0,7.49,8.39,,47.59359,-54.27349
2018-05-05 12:30:00+00:00,175.0,174.0,5.76,6.46,,47.59359,-54.27349
2018-05-05 12:40:00+00:00,184.0,190.0,3.92,4.65,,47.59359,-54.27349
2018-05-05 12:50:00+00:00,180.0,177.0,4.97,6.06,,47.59359,-54.27349
2018-05-05 13:00:00+00:00,167.0,163.0,6.75,8.08,,47.59359,-54.27349
2018-05-05 13:10:00+00:00,167.0,166.0,7.95,9.4,,47.59359,-54.27349
2018-05-05 13:20:00+00:00,165.0,169.0,4.71,5.91,,47.59359,-54.27349
2018-05-05 13:30:00+00:00,199.0,183.0,5.24,5.94,,47.59359,-54.27349
2018-05-05 13:40:00+00:00,171.0,171.0,6.48,7.5,,47.59359,-54.27349
2018-05-05 13:50:00+00:00,179.0,184.0,6.41,8.35,,47.59359,-54.27349
2018-05-05 14:00:00+00:00,179.0,180.0,7.66,8.71,,47.59359,-54.27349
2018-05-05 14:10:00+00:00,170.0,168.0,6.43,7.07,,47.59359,-54.27349
2018-05-05 14:20:00+00:00,167.0,164.0,7.51,8.82,,47.59359,-54.27349
2018-05-05 14:30:00+00:00,177.0,181.0,8.05,9.6,,47.59359,-54.27349
2018-05-05 14:40:00+00:00,181.0,188.0,6.33,7.17,,47.59359,-54.27349
2018-05-05 14:50:00+00:00,164.0,168.0,6.11,6.97,,47.59359,-54.27349
2018-05-05 15:00:00+00:00,177.0,172.0,6.34,7.06,,47.59359,-54.27349
2018-05-05 15:10:00+00:00,181.0,179.0,8.73,9.61,,47.59359,-54.27349
2018-05-05 15:20:00+00:00,177.0,182.0,8.23,9.17,,47.59359,-54.27349
2018-05-05 15:30:00+00:00,174.0,164.0,10.93,13.47,,47.59359,-54.27349
2018-05-05 15:40:00+00:00,168.0,164.0,11.36,13.17,,47.59359,-54.27349
2018-05-05 15:50:00+00:00,162.0,166.0,11.9,14.17,,47.59359,-54.27349
2018-05-05 16:00:00+00:00,185.0,188.0,6.92,9.6,,47.59359,-54.27349
2018-05-05 16:10:00+00:00,177.0,173.0,11.69,13.69,,47.59359,-54.27349
2018-05-05 16:20:00+00:00,179.0,177.0,12.7,14.95,,47.59359,-54.27349
2018-05-05 16:30:00+00:00,182.0,180.0,14.35,16.11,,47.59359,-54.27349
2018-05-05 16:40:00+00:00,184.0,186.0,14.45,17.68,,47.59359,-54.27349
2018-05-05 16:50:00+00:00,186.0,189.0,12.6,14.47,,47.59359,-54.27349
2018-05-05 17:00:00+00:00,197.0,204.0,10.98,12.6,,47.59359,-54.27349
2018-05-05 17:10:00+00:00,184.0,186.0,14.36,15.85,,47.59359,-54.27349
2018-05-05 17:20:00+00:00,184.0,185.0,13.75,15.89,,47.59359,-54.27349
2018-05-05 17:30:00+00:00,193.0,195.0,13.97,16.01,,47.59359,-54.27349
2018-05-05 17:40:00+00:00,197.0,204.0,13.05,16.07,,47.59359,-54.27349
2018-05-05 17:50:00+00:00,204.0,218.0,14.46,16.76,,47.59359,-54.27349
2018-05-05 18:00:00+00:00,218.0,218.0,15.83,18.62,,47.59359,-54.27349
2018-05-05 18:10:00+00:00,222.0,226.0,18.53,21.39,,47.59359,-54.27349
2018-05-05 18:20:00+00:00,220.0,218.0,17.35,20.11,,47.59359,-54.27349
2018-05-05 18:30:00+00:00,232.0,233.0,15.37,17.71,,47.59359,-54.27349
2018-05-05 18:40:00+00:00,228.0,231.0,14.98,17.3,,47.59359,-54.27349
2018-05-05 18:50:00+00:00,230.0,235.0,13.85,15.79,,47.59359,-54.27349
2018-05-05 19:00:00+00:00,228.0,226.0,13.21,16.66,,47.59359,-54.27349
2018-05-05 19:10:00+00:00,226.0,229.0,12.53,15.01,,47.59359,-54.27349
2018-05-05 19:20:00+00:00,224.0,229.0,11.69,12.85,,47.59359,-54.27349
2018-05-05 19:30:00+00:00,229.0,230.0,10.35,11.58,,47.59359,-54.27349
2018-05-05 19:40:00+00:00,225.0,223.0,9.8,11.03,,47.59359,-54.27349
2018-05-05 19:50:00+00:00,224.0,224.0,10.55,11.81,,47.59359,-54.27349
2018-05-05 20:00:00+00:00,221.0,218.0,9.73,10.92,,47.59359,-54.27349
2018-05-05 20:10:00+00:00,235.0,232.0,7.43,8.67,,47.59359,-54.27349
2018-05-05 20:20:00+00:00,272.0,273.0,12.18,13.95,,47.59359,-54.27349
2018-05-05 20:30:00+00:00,264.0,267.0,13.06,14.13,,47.59359,-54.27349
2018-05-05 20:40:00+00:00,264.0,268.0,14.42,15.98,,47.59359,-54.27349
2018-05-05 20:50:00+00:00,276.0,275.0,14.54,16.6,,47.59359,-54.27349
2018-05-05 21:00:00+00:00,262.0,271.0,12.03,14.45,,47.59359,-54.27349
2018-05-05 21:10:00+00:00,260.0,264.0,12.31,15.48,,47.59359,-54.27349
2018-05-05 21:20:00+00:00,262.0,256.0,21.39,23.78,,47.59359,-54.27349
2018-05-05 21:30:00+00:00,265.0,268.0,16.22,19.31,,47.59359,-54.27349
2018-05-05 21:40:00+00:00,261.0,258.0,14.87,18.85,,47.59359,-54.27349
2018-05-05 21:50:00+00:00,263.0,268.0,14.92,18.37,,47.59359,-54.27349
2018-05-05 22:00:00+00:00,257.0,258.0,13.69,15.76,,47.59359,-54.27349
2018-05-05 22:10:00+00:00,263.0,262.0,14.5,17.06,,47.59359,-54.27349
2018-05-05 22:20:00+00:00,260.0,258.0,13.38,15.76,,47.59359,-54.27349
2018-05-05 22:30:00+00:00,254.0,253.0,9.93,11.19,,47.59359,-54.27349
2018-05-05 22:40:00+00:00,253.0,254.0,11.12,13.23,,47.59359,-54.27349
2018-05-05 22:50:00+00:00,253.0,252.0,12.06,13.62,,47.59359,-54.27349
2018-05-05 23:00:00+00:00,264.0,268.0,14.31,16.43,,47.59359,-54.27349
2018-05-05 23:10:00+00:00,268.0,274.0,14.09,16.75,,47.59359,-54.27349
2018-05-05 23:20:00+00:00,262.0,270.0,13.39,15.34,,47.59359,-54.27349
2018-05-05 23:30:00+00:00,253.0,255.0,13.68,16.35,,47.59359,-54.27349
2018-05-05 23:40:00+00:00,250.0,250.0,12.99,15.63,,47.59359,-54.27349
2018-05-05 23:50:00+00:00,257.0,265.0,14.36,16.35,,47.59359,-54.27349
